Wadena, MN

7:46 AM CDT on April 24, 2018 (GMT -0500)
Wadena Municipal

Weather History for KADC - January, 2012

Change the Weather History Date:

Friday, January 13, 2012

  Actual Average Record
Temperature  
Mean Temperature 0 °F -  
Max Temperature 6 °F 15 °F 45 °F (1987)
Min Temperature -7 °F -4 °F -38 °F (1977)
Degree Days  
Heating Degree Days 66    
Moisture  
Dew Point -7 °F    
Average Humidity 81    
Maximum Humidity 92    
Minimum Humidity 66    
Precipitation  
Precipitation 0.00 in - - ()
Sea Level Pressure  
Sea Level Pressure 29.93 in    
Wind  
Wind Speed 5 mph (WNW)    
Max Wind Speed 10 mph    
Max Gust Speed -    
Visibility 10 miles    
Events Snow    
Averages and records for this station are not official NWS values.
T = Trace of Precipitation, MM = Missing Value Source: NWS Daily Summary

Daily Weather History Graph

Daily Weather History Graph

Search for Another Location

Airport or City:

Astronomy

Jan. 13, 2012 Rise Set
Actual Time 8:01 AM CST 4:57 PM CST
Civil Twilight 7:27 AM CST 5:31 PM CST
Nautical Twilight 6:50 AM CST 6:09 PM CST
Astronomical Twilight 6:13 AM CST 6:45 PM CST
Moon 10:33 PM CST (1/13) 9:56 AM CST (1/13)
Length of Visible Light 10h 03m
Length of Day
8h 55m
Waning Gibbous, 78% of the Moon is Illuminated
Jan 13
Waning Gibbous
Jan 16
Last Quarter
Jan 23
New
Jan 30
First Quarter
Feb 7
Full

Hourly Weather History & Observations

Time (CST) Temp. Windchill Dew Point Humidity Pressure Visibility Wind Dir Wind Speed Gust Speed Precip Events Conditions
12:14 AM -4.0 °F -16.3 °F -9.4 °F 78% 29.92 in 10.0 mi NW 5.8 mph - N/A   Overcast
12:35 AM -5.8 °F -19.9 °F -9.4 °F 84% 29.92 in 10.0 mi NW 6.9 mph - N/A   Overcast
12:53 AM -5.8 °F -19.9 °F -9.4 °F 84% 29.92 in 10.0 mi NW 6.9 mph - N/A   Overcast
1:14 AM -5.8 °F -18.4 °F -9.4 °F 84% 29.92 in 10.0 mi NW 5.8 mph - N/A   Overcast
1:35 AM -4.0 °F -14.6 °F -7.6 °F 85% 29.93 in 10.0 mi NNW 4.6 mph - N/A   Overcast
1:53 AM -5.8 °F -19.9 °F -9.4 °F 84% 29.93 in 10.0 mi NW 6.9 mph - N/A   Overcast
2:14 AM -5.8 °F -22.4 °F -9.4 °F 84% 29.94 in 10.0 mi WNW 9.2 mph - N/A   Overcast
2:35 AM -5.8 °F -22.4 °F -9.4 °F 84% 29.94 in 10.0 mi WNW 9.2 mph - N/A   Overcast
2:53 AM -5.8 °F -21.2 °F -9.4 °F 84% 29.94 in 10.0 mi WNW 8.1 mph - N/A   Overcast
3:15 AM -5.8 °F -22.4 °F -9.4 °F 84% 29.94 in 10.0 mi NW 9.2 mph - N/A   Overcast
3:35 AM -5.8 °F -22.4 °F -9.4 °F 84% 29.95 in 10.0 mi NW 9.2 mph - N/A   Overcast
3:53 AM -5.8 °F -23.4 °F -9.4 °F 84% 29.95 in 10.0 mi WNW 10.4 mph - N/A   Overcast
4:14 AM -5.8 °F -22.4 °F -9.4 °F 84% 29.94 in 10.0 mi WNW 9.2 mph - N/A   Overcast
4:35 AM -5.8 °F -22.4 °F -9.4 °F 84% 29.94 in 10.0 mi WNW 9.2 mph - N/A   Overcast
4:52 AM -7.6 °F -23.4 °F -9.4 °F 92% 29.95 in 10.0 mi WNW 8.1 mph - N/A   Overcast
5:15 AM -7.6 °F -22.1 °F -9.4 °F 92% 29.94 in 10.0 mi NW 6.9 mph - N/A   Overcast
5:35 AM -5.8 °F -19.9 °F -9.4 °F 84% 29.95 in 10.0 mi NW 6.9 mph - N/A   Overcast
5:52 AM -5.8 °F -23.4 °F -9.4 °F 84% 29.95 in 10.0 mi NNW 10.4 mph - N/A   Overcast
6:15 AM -5.8 °F -19.9 °F -9.4 °F 84% 29.95 in 10.0 mi NW 6.9 mph - N/A   Overcast
6:35 AM -5.8 °F -18.4 °F -9.4 °F 84% 29.95 in 10.0 mi NW 5.8 mph - N/A   Overcast
6:52 AM -5.8 °F -18.4 °F -9.4 °F 84% 29.95 in 10.0 mi NW 5.8 mph - N/A   Overcast
7:15 AM -7.6 °F -16.5 °F -9.4 °F 92% 29.95 in 10.0 mi WNW 3.5 mph - N/A   Overcast
7:35 AM -7.6 °F - -11.2 °F 84% 29.95 in 10.0 mi Calm Calm - N/A   Overcast
7:52 AM -7.6 °F - -11.2 °F 84% 29.95 in 10.0 mi Calm Calm - N/A   Overcast
8:15 AM -7.6 °F -16.5 °F -11.2 °F 84% 29.95 in 10.0 mi West 3.5 mph - N/A   Overcast
8:34 AM -7.6 °F - -11.2 °F 84% 29.95 in 10.0 mi Calm Calm - N/A   Overcast
8:53 AM -7.6 °F - -11.2 °F 84% 29.95 in 3.0 mi Calm Calm - N/A Snow Light Snow
9:15 AM -7.6 °F - -9.4 °F 92% 29.95 in 10.0 mi Calm Calm - N/A   Scattered Clouds
9:34 AM -5.8 °F - -9.4 °F 84% 29.95 in 7.0 mi Calm Calm - N/A   Mostly Cloudy
9:53 AM -5.8 °F - -9.4 °F 84% 29.95 in 10.0 mi Calm Calm - N/A   Overcast
10:15 AM -5.8 °F - -7.6 °F 92% 29.95 in 10.0 mi Calm Calm - N/A   Overcast
10:34 AM -4.0 °F - -7.6 °F 85% 29.95 in 10.0 mi Calm Calm - N/A   Overcast
10:53 AM -2.2 °F - -7.6 °F 78% 29.95 in 10.0 mi Calm Calm - N/A   Overcast
11:15 AM -2.2 °F - -5.8 °F 85% 29.95 in 7.0 mi Calm Calm - N/A   Overcast
11:34 AM -2.2 °F - -5.8 °F 85% 29.95 in 10.0 mi Calm Calm - N/A   Overcast
11:53 AM -0.4 °F - -5.8 °F 78% 29.94 in 10.0 mi Calm Calm - N/A   Overcast
12:15 PM -0.4 °F - -5.8 °F 78% 29.93 in 10.0 mi Calm Calm - N/A   Scattered Clouds
12:35 PM -0.4 °F - -5.8 °F 78% 29.92 in 10.0 mi Calm Calm - N/A   Clear
12:53 PM 1.4 °F - -4.0 °F 78% 29.91 in 10.0 mi Calm Calm - N/A   Clear
1:14 PM 1.4 °F - -4.0 °F 78% 29.91 in 10.0 mi Calm Calm - N/A   Clear
1:35 PM 3.2 °F - -4.0 °F 72% 29.90 in 10.0 mi Calm Calm - N/A   Clear
1:52 PM 3.2 °F - -4.0 °F 72% 29.90 in 10.0 mi Calm Calm - N/A   Clear
2:14 PM 3.2 °F - -2.2 °F 78% 29.90 in 10.0 mi Calm Calm - N/A   Clear
2:35 PM 5.0 °F - -2.2 °F 72% 29.90 in 10.0 mi Calm Calm - N/A   Clear
2:53 PM 5.0 °F - -2.2 °F 72% 29.90 in 10.0 mi Calm Calm - N/A   Clear
3:14 PM 6.8 °F - -2.2 °F 67% 29.91 in 10.0 mi Calm Calm - N/A   Clear
3:35 PM 6.8 °F -0.1 °F -2.2 °F 67% 29.91 in 10.0 mi SW 3.5 mph - N/A   Clear
3:53 PM 6.8 °F - -2.2 °F 67% 29.90 in 10.0 mi Calm Calm - N/A   Clear
4:14 PM 5.0 °F - -4.0 °F 66% 29.90 in 10.0 mi Calm Calm - N/A   Clear
4:35 PM 3.2 °F - -2.2 °F 78% 29.90 in 10.0 mi Calm Calm - N/A   Clear
4:53 PM 3.2 °F - -2.2 °F 78% 29.90 in 10.0 mi Calm Calm - N/A   Clear
5:15 PM 3.2 °F - -2.2 °F 78% 29.90 in 10.0 mi Calm Calm - N/A   Clear
5:35 PM 3.2 °F - -2.2 °F 78% 29.90 in 10.0 mi Calm Calm - N/A   Scattered Clouds
5:53 PM 3.2 °F -4.2 °F -2.2 °F 78% 29.90 in 10.0 mi ESE 3.5 mph - N/A   Mostly Cloudy
6:15 PM 5.0 °F -2.1 °F -0.4 °F 78% 29.90 in 10.0 mi SE 3.5 mph - N/A   Overcast
6:35 PM 5.0 °F -2.1 °F -0.4 °F 78% 29.90 in 10.0 mi SE 3.5 mph - N/A   Overcast
6:53 PM 5.0 °F - -0.4 °F 78% 29.91 in 10.0 mi Calm Calm - N/A   Unknown
7:15 PM 5.0 °F - -0.4 °F 78% 29.92 in 10.0 mi Calm Calm - N/A   Unknown
7:35 PM 5.0 °F -2.1 °F -0.4 °F 78% 29.91 in 10.0 mi SSE 3.5 mph - N/A   Overcast
7:52 PM 5.0 °F -2.1 °F -0.4 °F 78% 29.91 in 10.0 mi South 3.5 mph - N/A   Overcast
8:15 PM 5.0 °F - -0.4 °F 78% 29.91 in 10.0 mi Calm Calm - N/A   Overcast
8:35 PM 3.2 °F - -0.4 °F 85% 29.91 in 10.0 mi Calm Calm - N/A   Overcast
9:15 PM 3.2 °F - -0.4 °F 85% 29.91 in 10.0 mi Calm Calm - N/A   Scattered Clouds
9:35 PM 3.2 °F - -0.4 °F 85% 29.91 in 10.0 mi Calm Calm - N/A   Mostly Cloudy
9:53 PM 3.2 °F - -0.4 °F 85% 29.90 in 10.0 mi Calm Calm - N/A   Overcast
10:15 PM 5.0 °F -2.1 °F -0.4 °F 78% 29.91 in 10.0 mi ESE 3.5 mph - N/A   Overcast
10:35 PM 5.0 °F -4.1 °F -0.4 °F 78% 29.90 in 10.0 mi SE 4.6 mph - N/A   Overcast
10:53 PM 5.0 °F -4.1 °F -0.4 °F 78% 29.90 in 10.0 mi SE 4.6 mph - N/A   Overcast
11:15 PM 5.0 °F -5.6 °F -0.4 °F 78% 29.90 in 10.0 mi SE 5.8 mph - N/A   Overcast
11:35 PM 5.0 °F -5.6 °F -0.4 °F 78% 29.90 in 10.0 mi SSE 5.8 mph - N/A   Overcast
11:53 PM 6.8 °F -2.0 °F 1.4 °F 79% 29.90 in 10.0 mi South 4.6 mph - N/A   Overcast